EW4725 Weather Reports


time (UTC)temp
C
wind
direction
speed
KPH
gust
KPH
rain 1hr
cm
rain 24hr
cm
rain mn
cm
humidity
%
barometer
mb
20260503190316 20 215 8.0 11.3 0.00 0.00 0.00 58 1014.3
20260503185816 20 260 4.8 9.7 0.00 0.00 0.00 59 1014.4
20260503185315 19 0.0 1.6 0.00 0.00 0.00 59 1014.4
20260503184855 19 125 1.6 3.2 0.00 0.00 0.00 60 1014.5
20260503184316 19 283 6.4 9.7 0.00 0.00 0.00 59 1014.5
20260503183815 19 148 3.2 6.4 0.00 0.00 0.00 60 1014.5
20260503183315 19 0.0 0.0 0.00 0.00 0.00 60 1014.6
20260503182815 18 148 3.2 6.4 0.00 0.00 0.00 61 1014.6
20260503182315 18 283 3.2 4.8 0.00 0.00 0.00 61 1014.6
20260503181815 18 125 1.6 3.2 0.00 0.00 0.00 62 1014.6
20260503181315 18 260 6.4 6.4 0.00 0.00 0.00 61 1014.7
20260503180815 18 260 3.2 4.8 0.00 0.00 0.00 62 1014.8
20260503180315 18 103 1.6 3.2 0.00 0.00 0.00 63 1014.7
20260503175815 18 170 3.2 4.8 0.00 0.00 0.00 64 1014.8
20260503175355 18 125 3.2 6.4 0.00 0.00 0.00 64 1014.7
20260503174817 18 260 1.6 4.8 0.00 0.00 0.00 65 1014.7
20260503174315 18 260 3.2 6.4 0.00 0.00 0.00 65 1014.7
20260503173838 18 238 3.2 8.0 0.00 0.00 0.00 66 1014.7
20260503173317 17 0.0 1.6 0.00 0.00 0.00 66 1014.7
20260503172817 18 215 3.2 4.8 0.00 0.00 0.00 67 1014.7
20260503172315 17 170 3.2 4.8 0.00 0.00 0.00 67 1014.5
20260503171817 18 148 3.2 8.0 0.00 0.00 0.00 68 1014.5
20260503171317 17 170 1.6 4.8 0.00 0.00 0.00 69 1014.4
20260503170837 17 193 4.8 8.0 0.00 0.00 0.00 68 1014.4
20260503170317 17 170 1.6 3.2 0.00 0.00 0.00 69 1014.4
20260503150817 16 283 3.2 6.4 0.00 0.00 0.00 80 1013.7
20260503150317 16 238 3.2 6.4 0.00 0.00 0.00 81 1013.6
20260503131317 15 283 1.6 3.2 0.00 0.00 0.00 85 1012.9
20260503130816 15 238 1.6 3.2 0.00 0.00 0.00 84 1012.9
20260503130316 15 260 1.6 4.8 0.00 0.00 0.00 82 1012.9
20260503110816 15 148 1.6 3.2 0.00 0.00 0.00 82 1012.7
20260503110317 15 193 3.2 3.2 0.00 0.00 0.00 81 1012.7
20260503090316 15 170 1.6 3.2 0.00 0.00 0.00 81 1013.2
20260503081316 15 170 1.6 1.6 0.00 0.00 0.00 85 1013.4
20260503080816 15 260 1.6 4.8 0.00 0.00 0.00 85 1013.3
20260503080316 15 238 1.6 3.2 0.00 0.00 0.00 85 1013.3
20260503072816 15 260 1.6 1.6 0.00 0.00 0.00 86 1013.1
20260503072416 15 260 1.6 1.6 0.00 0.00 0.00 86 1013.1
20260503071836 15 0.0 0.0 0.00 0.00 0.00 86 1013.1
20260503071316 15 0.0 0.0 0.00 0.00 0.00 86 1013.0
20260503070816 15 0.0 1.6 0.00 0.00 0.00 87 1013.0
20260503070316 15 0.0 0.0 0.00 0.00 0.00 87 1012.9
20260503060316 15 283 3.2 4.8 0.00 0.00 0.00 88 1012.9
20260503054856 15 260 3.2 4.8 0.00 0.00 0.00 88 1012.8
20260503054316 15 260 3.2 4.8 0.00 0.00 0.00 88 1012.8
20260503053817 15 283 4.8 6.4 0.00 0.00 0.00 89 1012.7
20260503053317 15 305 4.8 8.0 0.00 0.00 0.00 89 1012.8
20260503052817 15 283 3.2 4.8 0.00 0.00 0.00 89 1012.9
20260503052317 15 260 1.6 4.8 0.00 0.00 0.00 89 1012.8
20260503051816 15 283 4.8 8.0 0.00 0.00 0.00 89 1012.9
20260503051317 15 283 4.8 6.4 0.00 0.00 0.00 89 1013.0
20260503050816 15 283 3.2 4.8 0.00 0.00 0.00 89 1012.9
20260503050316 15 260 4.8 6.4 0.00 0.00 0.00 89 1012.9
20260503045837 15 283 6.4 9.7 0.00 0.00 0.00 89 1012.9
20260503045316 15 283 3.2 4.8 0.00 0.00 0.00 88 1012.9
20260503044816 15 260 4.8 6.4 0.00 0.00 0.00 88 1012.8
20260503044316 15 283 3.2 4.8 0.00 0.00 0.00 88 1012.8
20260503043816 15 283 3.2 6.4 0.00 0.00 0.00 88 1012.7
20260503043337 15 305 4.8 6.4 0.00 0.00 0.00 87 1012.6
20260503042816 15 260 3.2 4.8 0.00 0.00 0.00 87 1012.6
20260503042317 15 283 6.4 9.7 0.00 0.00 0.00 87 1012.5
20260503041816 15 305 3.2 3.2 0.00 0.00 0.00 87 1012.5
20260503041317 15 283 4.8 6.4 0.00 0.00 0.00 86 1012.3
20260503040816 15 283 3.2 4.8 0.00 0.00 0.00 86 1012.1
20260503040316 15 283 1.6 3.2 0.00 0.00 0.00 86 1012.0
20260503035816 15 283 3.2 4.8 0.00 0.00 0.00 86 1012.0
20260503035316 15 260 4.8 6.4 0.00 0.00 0.00 86 1012.0
20260503034816 15 283 4.8 6.4 0.00 0.00 0.00 85 1011.8
20260503034316 15 283 3.2 4.8 0.00 0.00 0.00 85 1011.8
20260503033816 15 283 6.4 8.0 0.00 0.00 0.00 85 1011.7
20260503033316 15 283 6.4 8.0 0.00 0.00 0.00 85 1011.6
20260503032816 16 283 4.8 9.7 0.00 0.00 0.00 84 1011.5
20260503032316 16 260 3.2 6.4 0.00 0.00 0.00 84 1011.4
20260503031816 16 305 4.8 6.4 0.00 0.00 0.00 84 1011.3
20260503031316 16 305 4.8 8.0 0.00 0.00 0.00 84 1011.3
20260503030816 16 283 3.2 4.8 0.00 0.00 0.00 83 1011.2
20260503030316 16 260 4.8 6.4 0.00 0.00 0.00 83 1011.3
20260503025836 16 260 4.8 6.4 0.00 0.00 0.00 83 1011.2
20260503025316 16 283 8.0 11.3 0.00 0.00 0.00 82 1011.1
20260503024816 16 283 6.4 8.0 0.00 0.00 0.00 82 1010.9
20260503024316 16 283 8.0 11.3 0.00 0.00 0.00 81 1010.8
20260503023816 16 283 8.0 11.3 0.00 0.00 0.00 81 1010.8
20260503023316 16 260 4.8 8.0 0.00 0.00 0.00 80 1010.7
20260503022836 17 283 6.4 9.7 0.00 0.00 0.00 80 1010.6
20260503022316 17 260 6.4 9.7 0.00 0.00 0.00 79 1010.6
20260503021816 17 260 11.3 16.1 0.00 0.00 0.00 78 1010.5
20260503021316 17 283 8.0 11.3 0.00 0.00 0.00 77 1010.5
20260503020816 17 260 6.4 9.7 0.00 0.00 0.00 76 1010.4
20260503020336 18 260 9.7 16.1 0.00 0.00 0.00 74 1010.5
20260503015816 18 305 6.4 8.0 0.00 0.00 0.00 73 1010.4
20260503015336 18 283 6.4 9.7 0.00 0.00 0.00 72 1010.3
20260503014816 18 305 4.8 9.7 0.00 0.00 0.00 72 1010.4
20260503014336 19 283 4.8 8.0 0.00 0.00 0.00 72 1010.4
20260503013816 18 260 4.8 9.7 0.00 0.00 0.00 72 1010.4
20260503013316 18 283 6.4 8.0 0.00 0.00 0.00 71 1010.5
20260503012816 19 283 9.7 12.9 0.00 0.00 0.00 71 1010.4
20260503012316 19 283 8.0 11.3 0.00 0.00 0.00 70 1010.4
20260503011816 19 260 3.2 9.7 0.00 0.00 0.00 71 1010.3
20260503011316 19 305 6.4 9.7 0.00 0.00 0.00 70 1010.5
20260503010856 19 283 6.4 12.9 0.00 0.00 0.00 70 1010.5
20260503010317 19 305 6.4 11.3 0.00 0.00 0.00 70 1010.5
20260503005836 19 283 8.0 9.7 0.00 0.00 0.00 69 1010.4
20260503005336 19 260 4.8 6.4 0.00 0.00 0.00 70 1010.4
20260503004816 19 305 4.8 8.0 0.00 0.00 0.00 70 1010.3
20260503004336 19 283 4.8 6.4 0.00 0.00 0.00 70 1010.4
20260503003816 19 283 8.0 11.3 0.00 0.00 0.00 70 1010.3
20260503003316 19 283 8.0 11.3 0.00 0.00 0.00 70 1010.4
20260503002816 20 305 6.4 12.9 0.00 0.00 0.00 69 1010.3
20260503002316 19 260 3.2 6.4 0.00 0.00 0.00 70 1010.5
20260503001816 19 260 11.3 16.1 0.00 0.00 0.00 69 1010.6
20260503001336 19 283 6.4 8.0 0.00 0.00 0.00 69 1010.5
20260503000816 19 305 9.7 14.5 0.00 0.00 0.00 69 1010.5
20260503000318 19 283 11.3 14.5 0.00 0.00 0.00 70 1010.5
20260502235816 19 260 8.0 11.3 0.00 0.00 0.00 70 1010.4
20260502235336 19 260 9.7 16.1 0.00 0.00 0.00 70 1010.6
20260502234816 19 283 8.0 11.3 0.00 0.00 0.00 70 1010.6
20260502234316 19 283 9.7 12.9 0.00 0.00 0.00 70 1010.6
20260502233816 20 260 9.7 16.1 0.00 0.00 0.00 69 1010.7
20260502233316 19 283 6.4 9.7 0.00 0.00 0.00 70 1010.6
20260502232816 20 283 11.3 17.7 0.00 0.00 0.00 69 1010.7
20260502232316 20 260 8.0 11.3 0.00 0.00 0.00 69 1010.8
20260502231816 20 260 8.0 14.5 0.00 0.00 0.00 69 1010.8
20260502231316 20 283 9.7 14.5 0.00 0.00 0.00 69 1010.8
20260502230836 20 305 11.3 16.1 0.00 0.00 0.00 69 1010.9
20260502230315 20 283 9.7 14.5 0.00 0.00 0.00 69 1010.9
20260502225836 20 260 11.3 14.5 0.00 0.00 0.00 69 1010.9
20260502225316 20 283 11.3 16.1 0.00 0.00 0.00 69 1010.9
20260502224816 20 260 12.9 19.3 0.00 0.00 0.00 68 1011.2
20260502224315 20 305 3.2 4.8 0.00 0.00 0.00 70 1011.3
20260502223816 20 283 11.3 14.5 0.00 0.00 0.00 69 1011.4
20260502223316 20 283 11.3 16.1 0.00 0.00 0.00 68 1011.7
20260502222816 20 283 11.3 17.7 0.00 0.00 0.00 68 1011.6
20260502222316 20 283 11.3 16.1 0.00 0.00 0.00 67 1011.7
20260502221815 20 305 8.0 12.9 0.00 0.00 0.00 68 1011.9
20260502221316 21 283 12.9 20.9 0.00 0.00 0.00 67 1011.8
20260502220816 21 260 11.3 14.5 0.00 0.00 0.00 67 1011.9
20260502220316 21 260 9.7 16.1 0.00 0.00 0.00 68 1012.0
20260502215816 21 283 8.0 11.3 0.00 0.00 0.00 66 1012.2
20260502215315 21 283 8.0 20.9 0.00 0.00 0.00 69 1012.2
20260502214815 21 328 11.3 17.7 0.00 0.00 0.00 67 1012.3
20260502214316 21 283 11.3 19.3 0.00 0.00 0.00 68 1012.3
20260502213836 21 283 8.0 14.5 0.00 0.00 0.00 67 1012.4
20260502213336 21 305 8.0 11.3 0.00 0.00 0.00 66 1012.5
20260502212816 21 260 6.4 9.7 0.00 0.00 0.00 66 1012.5
20260502212315 22 283 6.4 8.0 0.00 0.00 0.00 65 1012.6
20260502211816 22 283 6.4 8.0 0.00 0.00 0.00 66 1012.6
20260502211315 22 260 6.4 11.3 0.00 0.00 0.00 65 1012.7
20260502210815 22 215 4.8 9.7 0.00 0.00 0.00 66 1012.7
20260502210315 22 283 3.2 6.4 0.00 0.00 0.00 68 1012.7
20260502205816 21 238 3.2 8.0 0.00 0.00 0.00 68 1012.7
20260502205315 21 170 9.7 12.9 0.00 0.00 0.00 68 1012.7
20260502204835 21 148 4.8 9.7 0.00 0.00 0.00 68 1012.8
20260502204316 21 260 12.9 17.7 0.00 0.00 0.00 67 1012.8
20260502203816 21 283 8.0 11.3 0.00 0.00 0.00 67 1012.8
20260502203316 21 215 6.4 11.3 0.00 0.00 0.00 67 1012.8
20260502202836 21 238 4.8 9.7 0.00 0.00 0.00 69 1012.8
20260502202336 21 148 3.2 9.7 0.00 0.00 0.00 67 1012.8
20260502201815 21 215 6.4 8.0 0.00 0.00 0.00 67 1013.0
20260502201316 21 260 4.8 6.4 0.00 0.00 0.00 68 1013.2
20260502200815 21 260 6.4 9.7 0.00 0.00 0.00 69 1013.0
20260502200335 21 260 3.2 8.0 0.00 0.00 0.00 69 1013.2
20260502195816 21 215 4.8 6.4 0.00 0.00 0.00 70 1013.2
20260502195315 21 238 4.8 6.4 0.00 0.00 0.00 71 1013.3
20260502194817 21 238 3.2 6.4 0.00 0.00 0.00 71 1013.4
20260502194315 20 148 4.8 9.7 0.00 0.00 0.00 73 1013.5
20260502193815 20 305 6.4 8.0 0.00 0.00 0.00 74 1013.5
20260502193316 20 283 4.8 8.0 0.00 0.00 0.00 74 1013.7
20260502192816 20 238 6.4 14.5 0.00 0.00 0.00 74 1013.5
20260502192315 20 283 4.8 8.0 0.00 0.00 0.00 74 1013.6
20260502191815 19 125 1.6 3.2 0.00 0.00 0.00 75 1013.8
20260502191315 19 260 4.8 8.0 0.00 0.00 0.00 76 1013.9
20260502190815 19 283 4.8 6.4 0.00 0.00 0.00 76 1014.1